Total_Precipitation_Accumulation
0.33 0.43 0.43 0.40 0.40 0.42 0.45 0.50 0.66 0.79 0.97 1.13 1.16 1.23 1.38 1.26 1.11 1.06 0.97 0.99 1.02 0.99 0.94 0.92 0.95 1.05 1.28 1.55 1.76 1.91 2.16 2.29 2.37 2.40 2.42 2.47 2.48 2.56 2.57 2.48 2.46 2.70 2.72 2.67
0.38 0.47 0.47 0.41 0.41 0.38 0.38 0.36 0.44 0.68 0.98 0.97 0.92 1.00 1.20 1.21 1.28 1.27 1.16 1.01 0.94 0.95 0.98 0.99 0.94 0.96 1.06 1.30 1.59 1.78 1.98 2.12 2.20 2.34 2.50 2.52 2.50 2.55 2.55 2.59 2.65 2.70 2.62 2.59
0.53 0.56 0.65 0.66 0.52 0.52 0.52 0.49 0.56 0.85 1.01 0.85 0.85 0.93 1.04 1.09 1.21 1.19 1.16 1.25 1.21 1.11 1.18 1.11 1.08 1.10 1.14 1.23 1.47 1.71 1.89 2.01 2.13 2.27 2.40 2.44 2.39 2.52 2.61 2.57 2.53 2.45 2.41 2.41
0.56 0.77 1.07 0.81 0.53 0.47 0.51 0.59 0.58 0.68 0.75 0.73 0.80 0.85 1.00 1.17 1.18 1.09 0.98 1.04 1.20 1.27 1.32 1.31 1.24 1.31 1.32 1.36 1.50 1.69 1.91 2.05 2.14 2.30 2.33 2.36 2.37 2.31 2.33 2.35 2.34 2.32 2.20 2.20
0.71 0.87 0.90 0.78 0.64 0.63 0.66 0.77 0.61 0.62 0.69 0.75 0.85 0.98 1.21 1.09 1.03 1.05 0.96 1.03 1.09 1.15 1.25 1.43 1.46 1.48 1.51 1.63 1.77 1.80 1.93 2.10 2.23 2.30 2.29 2.30 2.32 2.25 2.27 2.30 2.25 2.26 2.23 2.25
0.78 1.07 1.17 0.96 0.71 0.72 0.85 1.32 0.90 0.77 0.89 0.99 1.01 1.35 1.48 1.09 1.09 1.18 1.01 0.98 1.08 1.18 1.23 1.38 1.52 1.61 1.65 1.76 1.94 1.94 1.99 2.11 2.19 2.25 2.34 2.27 2.37 2.46 2.46 2.38 2.33 2.37 2.37 2.33
0.86 1.13 1.24 0.89 0.71 0.85 1.61 1.84 1.10 0.98 1.06 1.19 1.27 1.30 1.20 1.04 1.21 1.35 1.15 1.07 1.03 1.13 1.38 1.49 1.58 1.73 1.81 1.77 1.83 1.88 2.03 2.15 2.22 2.29 2.37 2.34 2.42 2.50 2.54 2.50 2.54 2.45 2.29 2.28
1.14 1.52 1.69 1.01 0.94 1.35 1.61 1.25 1.16 1.12 1.11 1.13 1.10 1.06 1.02 0.98 1.10 1.25 1.31 1.36 1.39 1.47 1.57 1.60 1.64 1.82 1.96 2.00 1.95 2.05 2.14 2.14 2.24 2.38 2.20 2.19 2.45 2.56 2.61 2.64 2.59 2.48 2.36 2.25
1.49 1.66 1.51 1.35 1.38 1.42 1.30 1.36 1.30 1.17 1.14 1.12 1.12 1.11 1.13 1.09 1.04 1.17 1.35 1.40 1.45 1.51 1.53 1.61 1.72 1.83 2.05 2.12 2.10 2.11 2.21 2.27 2.32 2.36 2.44 2.49 2.54 2.62 2.60 2.54 2.49 2.46 2.43 2.32
1.80 1.76 1.57 1.58 1.53 1.46 1.42 1.43 1.35 1.27 1.30 1.23 1.26 1.39 1.37 1.32 1.29 1.19 1.21 1.25 1.32 1.47 1.53 1.69 1.89 2.03 2.25 2.27 2.22 2.25 2.36 2.48 2.49 2.44 2.49 2.65 2.79 2.76 2.66 2.51 2.57 2.60 2.46 2.40
2.21 2.14 1.87 1.70 1.52 1.41 1.34 1.28 1.22 1.22 1.31 1.36 1.32 1.43 1.47 1.57 1.60 1.51 1.39 1.38 1.50 1.68 1.80 1.90 2.00 2.07 2.25 2.40 2.48 2.57 2.62 2.64 2.67 2.67 2.72 2.81 2.77 2.71 2.69 2.63 2.57 2.60 2.54 2.50
2.57 2.17 1.97 1.89 1.67 1.60 1.40 1.29 1.27 1.28 1.28 1.35 1.35 1.41 1.40 1.51 1.67 1.67 1.68 1.73 1.72 1.74 1.92 2.02 2.03 2.12 2.28 2.51 2.76 2.98 2.93 2.79 2.82 2.88 2.91 2.85 2.85 2.67 2.52 2.41 2.33 2.21 2.22 2.21
2.23 1.98 1.82 1.67 1.62 1.66 1.54 1.38 1.34 1.35 1.36 1.43 1.55 1.50 1.49 1.55 1.60 1.70 1.74 1.86 1.91 1.83 1.87 1.98 2.02 2.14 2.26 2.38 2.65 2.97 3.06 3.04 2.93 2.88 2.84 2.81 2.89 2.93 2.84 2.62 2.49 2.28 2.13 2.03
2.07 2.10 2.03 1.82 1.68 1.60 1.65 1.58 1.41 1.41 1.38 1.41 1.59 1.70 1.68 1.58 1.58 1.66 1.70 1.76 1.79 1.80 1.82 1.85 1.85 1.89 2.11 2.40 2.65 2.83 2.90 2.90 2.85 2.83 2.77 2.78 2.91 3.00 2.94 2.87 2.76 2.54 2.30 2.16
2.01 2.13 2.10 1.87 1.86 1.71 1.60 1.58 1.60 1.73 1.58 1.48 1.56 1.80 1.82 1.63 1.61 1.71 1.73 1.70 1.71 1.76 1.83 1.81 1.83 1.87 2.00 2.32 2.70 2.85 2.82 2.80 2.74 2.73 2.82 2.92 2.96 3.03 2.96 2.91 2.86 2.73 2.48 2.28
2.06 2.09 2.04 1.94 1.97 1.90 1.76 1.75 1.83 1.88 1.71 1.59 1.61 1.78 1.97 1.88 1.76 1.80 1.80 1.80 1.85 1.83 1.86 1.85 1.87 1.96 2.06 2.29 2.62 2.80 2.89 2.92 2.87 2.72 2.68 2.79 2.90 2.87 2.88 2.88 2.79 2.69 2.59 2.40
2.24 2.38 2.16 2.00 2.00 1.92 1.90 1.88 1.93 1.97 1.96 1.97 1.86 1.81 1.88 1.84 1.88 1.91 1.93 1.96 2.03 1.98 1.96 1.96 1.95 2.00 2.07 2.26 2.48 2.52 2.61 2.58 2.55 2.44 2.42 2.44 2.62 2.70 2.77 2.87 2.75 2.60 2.52 2.46
2.26 2.36 2.22 2.03 1.99 2.01 2.01 1.91 1.87 1.98 2.17 2.19 2.03 2.05 2.15 2.17 2.22 2.20 2.06 2.00 2.05 2.07 2.04 2.01 1.97 1.99 2.07 2.17 2.39 2.41 2.42 2.42 2.31 2.21 2.24 2.33 2.45 2.54 2.65 2.76 2.73 2.66 2.54 2.43
2.22 2.21 2.07 1.96 1.94 2.00 2.10 2.04 1.89 1.87 2.04 2.18 2.11 2.15 2.23 2.34 2.33 2.28 2.20 2.21 2.31 2.39 2.29 2.14 2.14 1.95 2.03 2.19 2.41 2.56 2.52 2.45 2.40 2.36 2.29 2.38 2.37 2.42 2.58 2.61 2.60 2.63 2.52 2.33
2.18 2.16 2.07 2.09 2.01 2.03 2.10 2.04 1.96 1.85 1.85 1.96 2.02 2.07 2.17 2.32 2.39 2.38 2.31 2.28 2.31 2.39 2.38 2.25 1.94 1.88 1.96 2.15 2.37 2.40 2.54 2.56 2.44 2.32 2.23 2.20 2.27 2.42 2.50 2.42 2.30 2.30 2.26 2.14
2.28 2.27 2.30 2.25 2.23 2.19 2.17 2.10 1.96 1.89 1.86 1.91 2.04 2.14 2.20 2.35 2.47 2.47 2.53 2.47 2.31 2.21 2.06 2.03 1.85 1.85 1.85 1.99 2.13 2.19 2.39 2.50 2.52 2.41 2.27 2.16 2.13 2.16 2.14 2.11 2.04 2.00 2.00 2.00
2.37 2.26 2.22 2.05 2.01 2.08 2.05 1.95 1.80 1.74 1.76 1.82 1.93 2.02 2.10 2.21 2.37 2.35 2.28 2.36 2.26 2.17 1.87 1.76 1.80 1.94 1.96 1.92 1.84 2.02 2.22 2.29 2.30 2.22 2.09 1.98 1.96 1.97 1.93 1.86 1.83 1.76 1.70 1.69
2.29 2.07 1.98 1.92 1.85 1.85 1.84 1.77 1.60 1.60 1.64 1.68 1.83 2.03 2.17 2.14 2.14 2.21 2.17 1.99 1.86 1.85 1.74 1.75 1.81 1.82 1.76 1.68 1.75 1.87 1.97 2.03 2.06 2.08 2.05 1.95 1.87 1.88 1.82 1.69 1.64 1.58 1.54 1.49
2.07 1.84 1.76 1.69 1.62 1.61 1.64 1.61 1.50 1.46 1.45 1.52 1.62 1.79 2.03 2.13 2.02 1.81 1.81 1.84 1.73 1.59 1.53 1.63 1.64 1.59 1.56 1.47 1.59 1.72 1.80 1.81 1.85 1.85 1.81 1.78 1.74 1.74 1.65 1.55 1.48 1.43 1.41 1.36
1.99 1.85 1.73 1.63 1.62 1.57 1.47 1.47 1.50 1.49 1.48 1.57 1.62 1.65 1.83 2.02 2.05 1.81 1.57 1.42 1.44 1.36 1.29 1.30 1.25 1.24 1.20 1.21 1.27 1.39 1.53 1.61 1.66 1.67 1.63 1.64 1.66 1.67 1.59 1.48 1.39 1.34 1.30 1.27
1.97 1.89 1.85 1.72 1.63 1.59 1.51 1.48 1.54 1.57 1.63 1.76 1.73 1.59 1.64 1.72 1.73 1.61 1.45 1.28 1.24 1.27 1.17 1.14 1.07 1.01 0.93 0.94 1.00 1.13 1.22 1.32 1.38 1.37 1.36 1.43 1.52 1.54 1.51 1.48 1.42 1.38 1.35 1.32
1.83 1.75 1.75 1.66 1.55 1.51 1.54 1.56 1.63 1.69 1.81 1.99 1.96 1.71 1.63 1.63 1.63 1.58 1.51 1.39 1.31 1.32 1.21 1.13 1.08 1.03 0.97 0.94 0.93 1.01 1.05 1.09 1.15 1.21 1.25 1.27 1.32 1.41 1.42 1.41 1.44 1.38 1.31 1.26